Location: Montclair
(37.8322°N, 122.2092°W)
Time: 23:03:31
(UTC+00:00)

Cosmos 1867 - Pass Details

Date: 08 December 2024
Orbit: 773 x 801 km, 65.0° (Epoch: 19 January)

Event Time Altitude Azimuth Distance (km) Brightness Sun altitude
Rises 13:58:26 0° 213° (SSW) 3,268 6.6 -14.2°
Reaches altitude 10° 14:00:50 10° 214° (SW) 2,347 5.9 -13.8°
Maximum altitude 14:06:15 77° 301° (WNW) 818 3.5 -12.8°
Drops below altitude 10° 14:11:43 10° 28° (NNE) 2,376 6.1 -11.8°
Sets 14:14:10 0° 30° (NNE) 3,311 6.9 -11.3°
